GW2711 Weather Reports


time (UTC)temp
C
wind
direction
speed
KPH
gust
KPH
rain 1hr
cm
rain 24hr
cm
rain mn
cm
humidity
%
barometer
mb
20260906213100 28 110 30.6 40.2 0.00 0.00 0.00 39 1020.4
20260906212533 28 109 22.5 33.8 0.00 0.00 0.00 38 1020.5
20260906212034 28 111 24.1 37.0 0.00 0.00 0.00 39 1020.5
20260906211602 28 106 24.1 37.0 0.00 0.00 0.00 38 1020.6
20260906211033 29 135 24.1 37.0 0.00 0.00 0.00 39 1020.6
20260906210536 29 107 22.5 37.0 0.00 0.00 0.00 38 1020.7
20260906210107 29 115 25.7 37.0 0.00 0.00 0.00 38 1020.7
20260906205535 28 115 24.1 37.0 0.00 0.00 0.00 38 1020.8
20260906205033 28 97 17.7 35.4 0.00 0.00 0.00 39 1020.8
20260906204603 28 121 22.5 32.2 0.00 0.00 0.00 37 1021.0
20260906204036 28 111 22.5 38.6 0.00 0.00 0.00 38 1021.0
20260906203535 28 84 22.5 38.6 0.00 0.00 0.00 38 1021.2
20260906203102 28 92 20.9 37.0 0.00 0.00 0.00 37 1021.0
20260906202531 28 90 14.5 43.5 0.00 0.00 0.00 37 1021.2
20260906202033 29 101 29.0 43.5 0.00 0.00 0.00 36 1021.3
20260906201610 28 97 16.1 30.6 0.00 0.00 0.00 36 1021.2
20260906201034 28 110 19.3 30.6 0.00 0.00 0.00 34 1021.4
20260906200533 28 80 14.5 33.8 0.00 0.00 0.00 35 1021.4
20260906200057 28 109 24.1 40.2 0.00 0.00 0.00 37 1021.6
20260906195533 28 88 25.7 40.2 0.00 0.00 0.00 38 1021.7
20260906195035 27 84 19.3 37.0 0.00 0.00 0.00 38 1021.7
20260906194604 28 111 22.5 37.0 0.00 0.00 0.00 38 1021.7
20260906194032 28 126 22.5 37.0 0.00 0.00 0.00 38 1021.7
20260906193534 28 115 17.7 32.2 0.00 0.00 0.00 38 1021.8
20260906193104 28 140 22.5 32.2 0.00 0.00 0.00 37 1021.9
20260906192532 28 79 20.9 32.2 0.00 0.00 0.00 37 1021.8
20260906192032 28 136 24.1 32.2 0.00 0.00 0.00 36 1021.9
20260906191613 28 125 20.9 27.4 0.00 0.00 0.00 36 1021.9
20260906191033 28 105 11.3 24.1 0.00 0.00 0.00 35 1022.0
20260906190533 27 103 17.7 25.7 0.00 0.00 0.00 36 1022.1
20260906190054 27 113 16.1 25.7 0.00 0.00 0.00 37 1022.1
20260906185533 27 69 14.5 29.0 0.00 0.00 0.00 38 1022.3
20260906185033 27 93 11.3 29.0 0.00 0.00 0.00 38 1022.3
20260906184605 27 74 17.7 27.4 0.00 0.00 0.00 39 1022.5
20260906184033 27 80 17.7 25.7 0.00 0.00 0.00 39 1022.6
20260906183533 27 84 11.3 22.5 0.00 0.00 0.00 38 1022.6
20260906183108 27 92 11.3 22.5 0.00 0.00 0.00 37 1022.8
20260906182536 27 104 9.7 22.5 0.00 0.00 0.00 39 1022.9
20260906182033 27 84 11.3 20.9 0.00 0.00 0.00 38 1023.0
20260906181606 27 143 8.0 16.1 0.00 0.00 0.00 38 1023.1
20260906181034 27 53 9.7 16.1 0.00 0.00 0.00 39 1023.2
20260906180533 27 88 6.4 19.3 0.00 0.00 0.00 38 1023.3
20260906180106 27 115 8.0 19.3 0.00 0.00 0.00 37 1023.4
20260906175533 27 91 11.3 19.3 0.00 0.00 0.00 37 1023.5
20260906175032 27 69 8.0 16.1 0.00 0.00 0.00 38 1023.6
20260906174603 26 199 3.2 14.5 0.00 0.00 0.00 38 1023.7
20260906174033 26 130 4.8 14.5 0.00 0.00 0.00 38 1023.8
20260906173532 26 118 8.0 17.7 0.00 0.00 0.00 38 1023.8
20260906173100 26 111 8.0 17.7 0.00 0.00 0.00 38 1023.8
20260906172535 27 109 6.4 11.3 0.00 0.00 0.00 38 1023.8
20260906172033 26 77 4.8 16.1 0.00 0.00 0.00 39 1023.9
20260906171604 26 69 4.8 16.1 0.00 0.00 0.00 39 1024.0
20260906171033 26 79 6.4 20.9 0.00 0.00 0.00 40 1024.0
20260906170535 26 117 12.9 20.9 0.00 0.00 0.00 39 1024.0
20260906170108 26 133 4.8 11.3 0.00 0.00 0.00 39 1024.0
20260906165534 26 317 4.8 14.5 0.00 0.00 0.00 39 1024.0
20260906165033 26 317 8.0 14.5 0.00 0.00 0.00 39 1024.0
20260906164603 26 0 1.6 8.0 0.00 0.00 0.00 39 1024.2
20260906164033 26 17 4.8 6.4 0.00 0.00 0.00 40 1024.3
20260906163532 26 360 3.2 6.4 0.00 0.00 0.00 41 1024.2
20260906163113 25 254 0.0 6.4 0.00 0.00 0.00 42 1024.3
20260906162537 25 113 1.6 14.5 0.00 0.00 0.00 41 1024.4
20260906162033 25 264 1.6 14.5 0.00 0.00 0.00 42 1024.3
20260906161557 25 360 8.0 14.5 0.00 0.00 0.00 42 1024.3
20260906161034 25 30 3.2 12.9 0.00 0.00 0.00 43 1024.4
20260906160533 24 309 6.4 12.9 0.00 0.00 0.00 44 1024.3
20260906160057 24 289 1.6 8.0 0.00 0.00 0.00 45 1024.3
20260906155531 23 42 4.8 11.3 0.00 0.00 0.00 46 1024.3
20260906155036 23 10 1.6 11.3 0.00 0.00 0.00 46 1024.2
20260906154601 23 318 4.8 9.7 0.00 0.00 0.00 47 1024.1
20260906154033 23 16 6.4 9.7 0.00 0.00 0.00 46 1024.2
20260906153533 23 360 4.8 12.9 0.00 0.00 0.00 47 1024.3
20260906153057 23 10 3.2 12.9 0.00 0.00 0.00 50 1024.3
20260906152534 22 11 4.8 8.0 0.00 0.00 0.00 49 1024.3
20260906152034 22 360 4.8 11.3 0.00 0.00 0.00 49 1024.3
20260906151558 22 5 3.2 11.3 0.00 0.00 0.00 50 1024.3
20260906151033 21 286 8.0 11.3 0.00 0.00 0.00 51 1024.2
20260906150533 21 190 3.2 9.7 0.00 0.00 0.00 52 1024.3
20260906150108 21 254 6.4 9.7 0.00 0.00 0.00 52 1024.2
20260906145533 21 261 3.2 11.3 0.00 0.00 0.00 53 1024.2
20260906145033 20 269 6.4 14.5 0.00 0.00 0.00 52 1024.2
20260906144601 20 275 8.0 14.5 0.00 0.00 0.00 52 1024.1
20260906144033 20 298 11.3 17.7 0.00 0.00 0.00 54 1024.2
20260906143533 20 264 12.9 17.7 0.00 0.00 0.00 54 1024.1
20260906143058 20 274 12.9 16.1 0.00 0.00 0.00 54 1024.0
20260906142536 19 285 8.0 14.5 0.00 0.00 0.00 55 1024.1
20260906142036 19 250 9.7 14.5 0.00 0.00 0.00 54 1024.0
20260906141558 19 246 11.3 14.5 0.00 0.00 0.00 55 1024.0
20260906141034 18 242 11.3 14.5 0.00 0.00 0.00 56 1023.9
20260906140532 18 253 8.0 11.3 0.00 0.00 0.00 57 1024.0
20260906140104 18 252 6.4 8.0 0.00 0.00 0.00 58 1024.0
20260906135533 17 241 6.4 8.0 0.00 0.00 0.00 59 1024.0
20260906135033 17 248 4.8 8.0 0.00 0.00 0.00 60 1023.9
20260906134559 17 236 6.4 9.7 0.00 0.00 0.00 60 1023.8
20260906134035 16 215 6.4 11.3 0.00 0.00 0.00 61 1023.8
20260906133535 16 221 8.0 11.3 0.00 0.00 0.00 61 1023.7
20260906133114 16 221 8.0 11.3 0.00 0.00 0.00 61 1023.6
20260906132536 16 229 8.0 11.3 0.00 0.00 0.00 62 1023.6
20260906132034 15 242 6.4 8.0 0.00 0.00 0.00 63 1023.6
20260906131557 15 241 4.8 6.4 0.00 0.00 0.00 65 1023.6
20260906131033 14 238 3.2 4.8 0.00 0.00 0.00 67 1023.5
20260906130533 13 177 3.2 4.8 0.00 0.00 0.00 69 1023.7
20260906130109 13 255 3.2 9.7 0.00 0.00 0.00 70 1023.5
20260906125533 13 256 4.8 12.9 0.00 0.00 0.00 71 1023.5
20260906125031 13 258 9.7 12.9 0.00 0.00 0.00 71 1023.4
20260906124557 13 255 9.7 11.3 0.00 0.00 0.00 71 1023.4
20260906124035 13 240 8.0 11.3 0.00 0.00 0.00 70 1023.4
20260906123532 13 245 6.4 11.3 0.00 0.00 0.00 67 1023.6
20260906123103 13 230 9.7 11.3 0.00 0.00 0.00 67 1023.5
20260906122534 13 223 6.4 8.0 0.00 0.00 0.00 67 1023.4
20260906122034 13 228 6.4 6.4 0.00 0.00 0.00 67 1023.5
20260906121602 14 221 3.2 8.0 0.00 0.00 0.00 66 1023.5
20260906121030 14 230 4.8 8.0 0.00 0.00 0.00 66 1023.5
20260906120534 14 232 4.8 8.0 0.00 0.00 0.00 67 1023.4
20260906115533 13 244 8.0 11.3 0.00 0.00 0.00 67 1023.2
20260906115033 14 249 8.0 11.3 0.00 0.00 0.00 67 1023.2
20260906114554 14 261 4.8 6.4 0.00 0.00 0.00 65 1023.0
20260906114033 15 261 4.8 9.7 0.00 0.00 0.00 65 1023.0
20260906113531 15 261 4.8 9.7 0.00 0.00 0.00 64 1023.1
20260906113052 15 268 8.0 11.3 0.00 0.00 0.00 63 1023.1
20260906112533 15 262 9.7 12.9 0.00 0.00 0.00 62 1023.0
20260906112033 15 263 11.3 12.9 0.00 0.00 0.00 63 1022.9
20260906111618 15 260 11.3 12.9 0.00 0.00 0.00 65 1022.9
20260906111032 15 238 9.7 12.9 0.00 0.00 0.00 65 1022.9
20260906110533 15 243 8.0 9.7 0.00 0.00 0.00 64 1022.9
20260906110100 15 236 6.4 9.7 0.00 0.00 0.00 64 1022.8
20260906105533 15 236 8.0 11.3 0.00 0.00 0.00 64 1022.8
20260906105034 15 237 8.0 11.3 0.00 0.00 0.00 64 1022.7
20260906104556 15 238 8.0 9.7 0.00 0.00 0.00 62 1022.8
20260906104033 16 234 6.4 6.4 0.00 0.00 0.00 61 1022.9
20260906103532 16 225 6.4 6.4 0.00 0.00 0.00 61 1023.0
20260906103102 16 231 4.8 8.0 0.00 0.00 0.00 61 1023.0
20260906102533 16 222 6.4 8.0 0.00 0.00 0.00 61 1022.9
20260906102035 16 224 6.4 8.0 0.00 0.00 0.00 59 1022.9
20260906101600 17 228 6.4 8.0 0.00 0.00 0.00 57 1022.8
20260906101034 17 227 8.0 8.0 0.00 0.00 0.00 55 1022.9
20260906100532 17 217 6.4 8.0 0.00 0.00 0.00 54 1023.0
20260906100058 18 204 3.2 8.0 0.00 0.00 0.00 54 1023.2
20260906095540 17 202 3.2 8.0 0.00 0.00 0.00 55 1023.2
20260906095033 17 215 6.4 8.0 0.00 0.00 0.00 56 1023.1
20260906094554 17 196 3.2 11.3 0.00 0.00 0.00 58 1023.1
20260906094034 16 196 4.8 11.3 0.00 0.00 0.00 59 1023.2
20260906093533 16 191 6.4 9.7 0.00 0.00 0.00 60 1023.0
20260906093104 16 229 4.8 8.0 0.00 0.00 0.00 62 1022.9
20260906092532 16 240 6.4 9.7 0.00 0.00 0.00 62 1022.8
20260906092034 16 231 6.4 12.9 0.00 0.00 0.00 62 1022.7
20260906091559 17 233 9.7 12.9 0.00 0.00 0.00 61 1022.7
20260906091033 16 216 11.3 11.3 0.00 0.00 0.00 62 1022.8
20260906090533 16 217 6.4 8.0 0.00 0.00 0.00 63 1022.8
20260906090057 17 217 6.4 8.0 0.00 0.00 0.00 63 1022.8
20260906085533 16 226 4.8 6.4 0.00 0.00 0.00 63 1022.8
20260906085032 16 227 4.8 9.7 0.00 0.00 0.00 64 1022.8
20260906084601 16 221 8.0 9.7 0.00 0.00 0.00 67 1022.8
20260906084033 16 218 8.0 9.7 0.00 0.00 0.00 68 1022.8
20260906083534 16 223 6.4 9.7 0.00 0.00 0.00 68 1022.8
20260906083059 16 234 8.0 9.7 0.00 0.00 0.00 69 1022.8
20260906082532 16 237 8.0 8.0 0.00 0.00 0.00 71 1022.9
20260906082036 16 229 6.4 9.7 0.00 0.00 0.00 71 1023.0
20260906081600 16 236 6.4 9.7 0.00 0.00 0.00 70 1023.0
20260906081033 16 225 8.0 9.7 0.00 0.00 0.00 70 1023.0
20260906080533 16 224 8.0 11.3 0.00 0.00 0.00 71 1023.1
20260906075534 17 210 11.3 12.9 0.00 0.00 0.00 70 1023.1
20260906075033 17 205 9.7 12.9 0.00 0.00 0.00 70 1023.1
20260906074554 17 212 9.7 9.7 0.00 0.00 0.00 68 1023.2
20260906074038 17 201 6.4 8.0 0.00 0.00 0.00 66 1023.1
20260906073533 17 195 6.4 9.7 0.00 0.00 0.00 63 1023.1
20260906073101 18 205 8.0 9.7 0.00 0.00 0.00 60 1023.0
20260906072534 18 203 6.4 8.0 0.00 0.00 0.00 59 1023.1
20260906072033 18 203 6.4 8.0 0.00 0.00 0.00 62 1023.1
20260906071601 17 203 6.4 8.0 0.00 0.00 0.00 64 1023.1
20260906071033 17 174 6.4 8.0 0.00 0.00 0.00 63 1023.0
20260906070534 17 190 3.2 4.8 0.00 0.00 0.00 63 1023.2
20260906070059 18 0 0.0 6.4 0.00 0.00 0.00 61 1023.2
20260906065534 18 190 4.8 11.3 0.00 0.00 0.00 63 1023.3
20260906065034 18 190 8.0 11.3 0.00 0.00 0.00 61 1023.2
20260906064604 19 181 1.6 4.8 0.00 0.00 0.00 56 1023.2
20260906064038 19 217 3.2 6.4 0.00 0.00 0.00 57 1023.1
20260906063533 18 217 4.8 12.9 0.00 0.00 0.00 58 1023.1
20260906063102 18 281 8.0 12.9 0.00 0.00 0.00 57 1023.0
20260906062533 18 277 9.7 12.9 0.00 0.00 0.00 62 1023.0
20260906062033 19 238 6.4 8.0 0.00 0.00 0.00 63 1023.0
20260906061604 19 221 6.4 8.0 0.00 0.00 0.00 63 1023.0
20260906061033 19 200 6.4 8.0 0.00 0.00 0.00 62 1023.0
20260906060533 20 192 6.4 8.0 0.00 0.00 0.00 61 1023.1
20260906060059 20 257 3.2 6.4 0.00 0.00 0.00 60 1023.1
20260906055533 20 257 1.6 6.4 0.00 0.00 0.00 60 1023.1
20260906055032 20 257 4.8 9.7 0.00 0.00 0.00 61 1023.1
20260906054608 20 267 4.8 14.5 0.00 0.00 0.00 61 1023.2
20260906054034 20 263 4.8 14.5 0.00 0.00 0.00 61 1023.2
20260906053534 20 271 9.7 14.5 0.00 0.00 0.00 61 1023.3
20260906053102 20 263 8.0 11.3 0.00 0.00 0.00 60 1023.3
20260906052534 20 281 4.8 9.7 0.00 0.00 0.00 60 1023.3
20260906052033 20 243 4.8 11.3 0.00 0.00 0.00 60 1023.2
20260906051612 20 253 6.4 11.3 0.00 0.00 0.00 60 1023.2
20260906051034 20 254 8.0 12.9 0.00 0.00 0.00 60 1023.2
20260906050533 20 247 6.4 12.9 0.00 0.00 0.00 60 1023.2
20260906050058 20 251 8.0 12.9 0.00 0.00 0.00 60 1023.2
20260906045532 21 257 4.8 12.9 0.00 0.00 0.00 60 1023.4
20260906045036 21 248 8.0 14.5 0.00 0.00 0.00 60 1023.5
20260906044608 21 234 8.0 16.1 0.00 0.00 0.00 61 1023.4
20260906044034 21 267 11.3 16.1 0.00 0.00 0.00 61 1023.4
20260906043533 20 253 6.4 11.3 0.00 0.00 0.00 62 1023.3
20260906043100 20 238 6.4 14.5 0.00 0.00 0.00 62 1023.4
20260906042534 20 249 11.3 14.5 0.00 0.00 0.00 63 1023.3
20260906042033 20 243 9.7 12.9 0.00 0.00 0.00 62 1023.4
20260906041558 20 269 11.3 12.9 0.00 0.00 0.00 62 1023.2
20260906041034 21 248 6.4 16.1 0.00 0.00 0.00 62 1023.2
20260906040533 21 206 11.3 16.1 0.00 0.00 0.00 63 1023.1
20260906040134 21 171 9.7 14.5 0.00 0.00 0.00 62 1023.1
20260906035537 21 138 9.7 17.7 0.00 0.00 0.00 62 1023.2
20260906035035 21 142 12.9 17.7 0.00 0.00 0.00 62 1023.2
20260906034615 21 148 14.5 19.3 0.00 0.00 0.00 62 1023.1
20260906034033 20 152 12.9 19.3 0.00 0.00 0.00 62 1023.1
20260906033532 20 151 14.5 17.7 0.00 0.00 0.00 63 1023.0
20260906033107 20 158 14.5 16.1 0.00 0.00 0.00 64 1023.0
20260906032537 19 143 9.7 12.9 0.00 0.00 0.00 62 1022.9
20260906032033 20 140 11.3 14.5 0.00 0.00 0.00 61 1023.0
20260906031556 20 134 12.9 14.5 0.00 0.00 0.00 59 1023.0
20260906031035 20 138 12.9 14.5 0.00 0.00 0.00 57 1022.9
20260906030533 21 134 11.3 20.9 0.00 0.00 0.00 56 1022.8
20260906030105 21 140 14.5 25.7 0.00 0.00 0.00 55 1022.8
20260906025534 21 133 17.7 25.7 0.00 0.00 0.00 54 1022.7
20260906025033 22 135 19.3 33.8 0.00 0.00 0.00 53 1022.6
20260906024614 22 132 24.1 33.8 0.00 0.00 0.00 53 1022.6
20260906024034 22 154 19.3 24.1 0.00 0.00 0.00 44 1022.4
20260906023533 23 137 6.4 24.1 0.00 0.00 0.00 35 1022.5
20260906023103 23 0 0.0 3.2 0.00 0.00 0.00 34 1022.1
20260906022534 23 61 0.0 3.2 0.00 0.00 0.00 35 1021.9
20260906022034 23 0 0.0 0.0 0.00 0.00 0.00 35 1021.9
20260906021558 23 0 0.0 0.0 0.00 0.00 0.00 35 1021.9
20260906021033 23 0 0.0 0.0 0.00 0.00 0.00 35 1021.8
20260906020533 23 0 0.0 0.0 0.00 0.00 0.00 35 1021.7
20260906020100 23 0 0.0 3.2 0.00 0.00 0.00 35 1021.6
20260906015533 23 0 0.0 3.2 0.00 0.00 0.00 35 1021.7
20260906015033 23 0 0.0 3.2 0.00 0.00 0.00 35 1021.6
20260906014601 24 61 1.6 3.2 0.00 0.00 0.00 35 1021.7
20260906014034 24 79 1.6 9.7 0.00 0.00 0.00 34 1021.7
20260906013533 25 163 1.6 9.7 0.00 0.00 0.00 34 1021.5
20260906013107 25 163 6.4 8.0 0.00 0.00 0.00 33 1021.5
20260906012532 25 175 4.8 8.0 0.00 0.00 0.00 32 1021.5
20260906012033 26 204 3.2 12.9 0.00 0.00 0.00 31 1021.6
20260906011600 26 213 4.8 16.1 0.00 0.00 0.00 30 1021.4
20260906011033 26 188 11.3 16.1 0.00 0.00 0.00 30 1021.6
20260906010535 26 173 9.7 14.5 0.00 0.00 0.00 31 1021.7
20260906010100 26 190 11.3 16.1 0.00 0.00 0.00 31 1021.7
20260906005532 26 177 9.7 17.7 0.00 0.00 0.00 31 1021.8
20260906005033 26 174 11.3 20.9 0.00 0.00 0.00 30 1021.8
20260906004556 27 182 12.9 20.9 0.00 0.00 0.00 31 1021.9
20260906004034 26 183 12.9 17.7 0.00 0.00 0.00 31 1022.0
20260906003535 26 173 12.9 16.1 0.00 0.00 0.00 33 1022.0
20260906003101 26 168 9.7 14.5 0.00 0.00 0.00 33 1022.0
20260906002534 26 167 9.7 11.3 0.00 0.00 0.00 33 1021.9
20260906002033 26 157 6.4 9.7 0.00 0.00 0.00 32 1021.9
20260906001608 26 164 8.0 14.5 0.00 0.00 0.00 31 1021.9
20260906001034 27 167 8.0 14.5 0.00 0.00 0.00 30 1021.9
20260906000532 27 165 9.7 14.5 0.00 0.00 0.00 29 1021.8
20260906000100 27 157 8.0 14.5 0.00 0.00 0.00 29 1021.7
20260905235533 27 167 9.7 14.5 0.00 0.00 0.00 28 1021.7
20260905235034 28 148 6.4 16.1 0.00 0.00 0.00 28 1021.7
20260905234554 28 148 8.0 16.1 0.00 0.00 0.00 27 1021.7
20260905234033 28 157 8.0 19.3 0.00 0.00 0.00 27 1021.6
20260905233532 28 160 12.9 19.3 0.00 0.00 0.00 27 1021.6
20260905233102 28 138 11.3 19.3 0.00 0.00 0.00 27 1021.5
20260905232532 28 146 12.9 20.9 0.00 0.00 0.00 27 1021.4
20260905232033 28 136 14.5 20.9 0.00 0.00 0.00 27 1021.5
20260905231608 28 142 11.3 17.7 0.00 0.00 0.00 29 1021.6
20260905231032 28 140 14.5 19.3 0.00 0.00 0.00 28 1021.6
20260905230533 28 136 16.1 20.9 0.00 0.00 0.00 28 1021.6
20260905230106 28 136 16.1 20.9 0.00 0.00 0.00 29 1021.7
20260905225533 27 136 14.5 20.9 0.00 0.00 0.00 29 1021.6
20260905225033 27 146 17.7 24.1 0.00 0.00 0.00 29 1021.7
20260905224618 27 138 17.7 24.1 0.00 0.00 0.00 29 1021.7
20260905224032 27 130 20.9 24.1 0.00 0.00 0.00 29 1021.7
20260905223534 27 117 14.5 20.9 0.00 0.00 0.00 28 1021.7
20260905223116 27 126 14.5 22.5 0.00 0.00 0.00 28 1021.7
20260905222532 28 115 14.5 22.5 0.00 0.00 0.00 28 1021.6
20260905222034 28 120 17.7 25.7 0.00 0.00 0.00 28 1021.6
20260905221604 28 93 16.1 25.7 0.00 0.00 0.00 27 1021.6
20260905221032 28 135 17.7 25.7 0.00 0.00 0.00 28 1021.6
20260905220534 29 111 6.4 19.3 0.00 0.00 0.00 27 1021.6
20260905220059 29 123 11.3 17.7 0.00 0.00 0.00 25 1021.7
20260905215533 29 110 12.9 17.7 0.00 0.00 0.00 26 1021.7
20260905215032 29 120 8.0 17.7 0.00 0.00 0.00 25 1021.7
20260905214558 28 117 11.3 17.7 0.00 0.00 0.00 26 1021.8
20260905214033 28 119 11.3 20.9 0.00 0.00 0.00 26 1021.9
20260905213533 28 115 11.3 20.9 0.00 0.00 0.00 27 1021.9